This is the latest recevied weather packets stored in our database for station/object HS2LXA-13. If no packets are shown the sender has not sent any weather packets the latest 10 day(s).
| Time | Temp. | Humidity | Pressure | Rain* | Wind** | Luminosity | Snow |
|---|---|---|---|---|---|---|---|
| 1777922421 | 25.56° C | 85% | 1009.2 hPa | 0.51 mm | - | 0 W/m² | - |
| 1777921821 | 25.56° C | 87% | 1009.8 hPa | 0.51 mm | - | 0 W/m² | - |
| 1777921219 | 25° C | 85% | 1009.8 hPa | 0.51 mm | - | 0 W/m² | - |
| 1777920617 | 25.56° C | 84% | 1009.9 hPa | 0.51 mm | - | 0 W/m² | - |
| 1777920015 | 25.56° C | 84% | 1010 hPa | 0.51 mm | - | 0 W/m² | - |
| 1777919407 | 25.56° C | 85% | 1009.9 hPa | 0.51 mm | - | 0 W/m² | - |
| 1777918805 | 25.56° C | 85% | 1010 hPa | 0.51 mm | - | 0 W/m² | - |
| 1777918203 | 26.11° C | 83% | 1010.4 hPa | 0.51 mm | - | 0 W/m² | - |
| 1777917602 | 25.56° C | 84% | 1010.5 hPa | 0.51 mm | - | 0 W/m² | - |
| 1777917008 | 25.56° C | 83% | 1010.9 hPa | 0.51 mm | - | 0 W/m² | - |
| 1777916401 | 25° C | 83% | 1010.9 hPa | 0.51 mm | - | 0 W/m² | - |
| 1777915800 | 25° C | 83% | 1011.1 hPa | 0.25 mm | - | 0 W/m² | - |
| 1777915200 | 26.11° C | 83% | 1011.5 hPa | 0.25 mm | - | 0 W/m² | - |
| 1777914598 | 25.56° C | 82% | 1011.6 hPa | 0.25 mm | - | 0 W/m² | - |
| 1777913997 | 25° C | 82% | 1011.6 hPa | 12.19 mm | - | 0 W/m² | - |
| 1777913392 | 25.56° C | 82% | 1011.6 hPa | 12.19 mm | - | 0 W/m² | - |
| 1777912785 | 25° C | 82% | 1011.6 hPa | 11.68 mm | - | 0 W/m² | - |
| 1777912185 | 25° C | 82% | 1011.8 hPa | 11.68 mm | - | 0 W/m² | - |
| 1777911583 | 25.56° C | 83% | 1012.2 hPa | 11.43 mm | - | 0 W/m² | - |
| 1777910982 | 23.89° C | 84% | 1012.6 hPa | 10.92 mm | - | 0 W/m² | - |
| 1777910386 | 23.33° C | 82% | 1013 hPa | 9.91 mm | - | 0 W/m² | - |
| 1777909779 | 23.33° C | 82% | 1013 hPa | 6.6 mm | - | 0 W/m² | - |
| 1777909178 | 25° C | 78% | 1012.5 hPa | 0.76 mm | - | 0 W/m² | - |
| 1777908576 | 28.89° C | 80% | 1012.4 hPa | 0 mm | - | 0 W/m² | - |
| 1777907975 | 28.89° C | 81% | 1012.2 hPa | 0 mm | - | 0 W/m² | - |
* Rain latest hour (hover to see other rain measurements)
** Current wind speed in m/s (hover to see current wind gust speed)